RH
96 90 96 98 87 74 42 41 36 36 25 10 63 89 100 99 96 79 51 23 12 11 12 10 9 8 8 8 11 15 21 30 35 38 32 31 31 30 27 24 19 18 17 16 15
94 79 98 97 86 74 72 52 41 37 28 12 34 90 99 99 95 79 51 29 16 12 14 10 9 9 9 10 16 20 25 28 31 32 31 33 33 28 24 23 18 15 15 14 14
73 73 89 98 98 83 61 60 62 48 33 14 59 97 99 100 97 81 58 36 22 14 14 11 10 9 10 12 18 23 26 28 32 31 32 33 31 26 21 17 14 14 14 16 18
70 76 83 89 96 100 94 73 60 54 42 27 71 98 99 99 89 83 66 43 28 17 13 11 10 10 11 14 18 24 25 29 28 27 27 26 24 22 20 19 19 18 18 17 15
44 53 77 97 84 94 95 98 98 98 91 75 98 99 99 98 92 81 69 51 27 19 14 12 10 10 12 14 15 18 20 23 28 27 26 24 23 20 19 18 16 14 12 11 10
43 47 51 70 89 85 98 98 99 98 91 95 95 98 98 97 92 82 72 51 31 20 16 14 11 11 11 11 13 12 18 17 20 22 21 21 21 20 17 13 12 11 10 9 9
42 46 62 70 70 88 85 100 100 98 98 98 98 99 98 98 94 84 70 51 34 22 17 15 13 12 11 10 11 12 12 12 14 18 21 22 20 18 14 12 11 10 9 9 8
37 45 59 73 84 88 96 91 95 100 88 98 97 98 98 98 97 81 69 56 37 25 20 17 15 15 14 14 13 18 17 23 24 27 28 25 16 13 12 12 11 11 11 11 12
44 60 63 72 82 84 97 88 97 98 90 99 87 91 93 99 93 82 71 63 52 43 27 22 24 28 22 27 21 32 31 31 30 25 20 18 14 13 13 13 12 12 12 12 13
54 64 73 72 75 90 91 97 96 96 98 93 95 87 100 84 83 82 72 67 59 50 38 37 39 38 37 36 35 32 33 22 21 22 19 18 14 15 16 16 14 14 15 16 17
61 67 80 77 74 76 94 100 94 97 94 96 96 88 92 88 86 86 73 64 57 52 48 47 45 42 39 34 29 25 21 20 22 23 24 24 20 17 20 22 22 22 22 21 19
47 58 73 75 79 93 93 68 75 98 99 100 100 94 97 88 83 77 67 58 54 50 48 44 43 38 33 29 30 32 35 35 35 34 32 24 22 22 24 25 24 22 18 16 15
42 48 56 62 68 73 77 76 81 82 89 99 100 100 91 88 86 82 71 67 62 54 49 41 38 35 32 30 31 34 35 33 31 28 29 29 26 23 20 14 10 9 11 15 23
32 37 42 47 50 48 47 57 60 67 80 97 95 96 94 89 79 71 66 58 54 49 44 42 39 38 35 34 32 33 35 37 37 32 30 28 35 18 11 9 11 20 31 41 43
20 27 33 40 41 42 42 46 48 51 86 91 83 87 85 77 71 65 60 58 54 53 50 47 44 42 42 39 34 33 35 29 26 30 32 30 45 12 12 18 32 42 44 47 51
13 20 23 27 32 42 44 41 45 48 72 61 64 66 66 63 62 63 60 57 47 44 41 40 41 36 34 32 27 26 24 26 43 64 72 54 69 22 30 39 46 45 48 49 43
20 12 20 25 27 35 39 37 38 54 56 54 54 55 54 51 47 45 48 45 44 37 33 32 30 27 26 27 28 27 31 37 62 83 69 73 82 25 37 42 48 42 30 28 25
24 18 12 19 25 30 32 31 37 50 46 47 42 43 43 43 43 37 34 41 43 44 33 31 42 26 29 35 46 51 48 50 57 91 90 73 74 35 40 46 47 35 48 48 29
21 23 17 10 18 21 24 30 38 38 36 34 32 31 34 36 39 37 35 32 29 31 44 50 54 39 44 51 52 72 78 74 86 100 98 69 54 38 40 47 46 41 45 48 34
10 23 22 19 12 10 13 25 35 38 39 39 31 26 28 32 37 36 40 37 32 35 37 43 51 54 51 54 63 73 79 89 91 95 97 74 67 41 47 44 47 48 46 41 37
13 11 23 24 23 19 14 15 21 26 33 38 39 32 31 36 38 43 45 49 46 44 52 55 48 60 56 57 65 76 84 85 84 91 90 94 55 38 41 47 45 41 39 35 34
44 9 12 24 26 26 27 29 30 32 33 35 38 41 55 54 52 54 53 55 51 48 48 48 54 55 58 68 73 88 90 86 78 84 96 90 65 38 41 43 38 34 27 31 39
48 23 9 12 20 31 31 33 35 40 42 43 42 47 49 55 58 55 53 49 47 43 43 43 53 48 74 72 72 81 70 78 92 88 96 96 51 34 35 36 33 35 26 30 34
46 45 16 11 14 17 30 35 36 37 39 43 43 44 44 45 47 41 37 36 31 32 38 42 39 34 26 32 41 52 43 62 86 93 84 64 26 18 26 24 25 20 19 30 30
54 61 54 23 14 16 14 20 31 31 33 33 34 34 38 34 27 25 24 27 27 28 33 46 42 34 28 28 33 31 31 42 69 54 67 14 16 5 6 8 12 12 17 17 18
59 62 67 60 30 17 14 19 18 22 24 20 21 23 24 22 25 26 31 28 32 32 41 46 47 47 34 25 32 28 19 22 29 37 51 14 8 3 8 10 11 15 16 14 15
57 65 71 69 54 31 27 16 20 22 22 24 27 22 20 24 32 30 32 34 40 41 46 61 61 59 45 39 35 20 7 8 7 8 9 21 3 7 7 10 13 15 11 9 12
Wind_Speed
36 37 40 16 11 17 21 23 25 26 29 34 43 45 33 31 33 32 30 29 26 26 26 27 27 28 27 29 29 25 17 19 21 23 18 18 17 13 12 12 13 12 12 11 12
36 37 34 34 9 4 12 20 24 28 32 39 40 52 23 36 35 34 34 31 29 27 27 28 27 26 27 28 29 25 19 18 20 22 20 18 14 11 12 14 13 13 12 12 12
37 37 35 30 33 10 12 18 19 26 32 36 39 34 32 37 33 32 29 30 32 28 27 28 27 27 27 27 28 24 15 15 17 20 17 14 14 12 12 12 13 13 14 14 13
38 37 36 35 29 26 20 17 12 22 27 27 33 30 33 41 30 31 27 26 27 29 28 28 27 26 25 26 25 21 16 16 16 17 16 15 13 12 11 11 13 13 14 15 16
36 37 34 34 32 26 20 21 22 22 21 25 26 26 44 40 28 33 30 27 28 29 28 26 26 25 25 24 23 19 17 15 16 15 14 14 13 12 11 14 15 15 15 17 19
32 32 31 29 29 27 23 17 15 15 15 15 24 37 37 31 32 31 28 26 26 25 26 26 25 22 22 22 21 20 17 16 15 14 14 13 12 13 12 14 17 18 18 19 22
30 30 29 28 23 21 19 19 16 19 23 25 30 27 27 32 28 27 26 24 23 22 22 21 20 20 22 20 21 15 16 17 16 15 14 13 14 15 15 15 17 19 21 22 23
28 29 27 26 23 15 14 16 18 18 15 16 13 18 30 31 26 23 23 22 22 20 18 19 19 16 18 16 18 12 14 12 13 14 15 14 14 14 13 14 17 20 23 24 25
27 28 27 27 27 16 12 16 13 21 19 20 14 16 24 26 23 22 22 20 20 19 19 18 17 15 16 12 14 12 7 12 11 13 15 14 13 12 15 18 20 22 23 25 27
26 29 31 35 29 24 20 21 28 21 24 17 15 13 20 24 22 21 20 19 19 19 18 17 15 14 14 13 8 10 12 10 11 11 14 16 16 16 17 23 23 25 26 27 29
23 32 37 41 32 23 26 26 33 28 24 15 19 16 23 20 20 19 18 18 18 17 16 15 13 12 13 12 9 8 10 10 11 12 15 18 21 17 18 25 26 29 29 29 31
20 25 30 34 37 37 30 26 36 36 41 28 26 27 29 24 22 18 18 17 16 16 15 15 12 12 12 10 8 8 7 8 9 12 18 22 26 24 27 28 28 26 25 25 25
20 18 20 19 27 29 31 34 39 34 39 31 30 28 26 22 21 17 16 16 15 14 14 15 13 12 11 10 9 8 8 9 10 14 19 24 30 20 18 16 17 20 19 20 21
16 14 13 13 14 13 13 13 19 25 25 22 24 22 21 20 17 14 12 15 16 15 13 8 12 11 10 8 7 6 6 8 12 13 8 15 9 19 24 20 13 14 12 15 19
20 16 12 9 8 10 11 11 7 5 6 9 18 14 11 7 18 14 12 11 12 15 5 7 11 9 6 5 5 5 7 9 11 14 16 13 8 7 14 13 7 9 13 16 17
27 23 16 10 10 8 11 12 9 7 8 6 11 14 17 13 13 13 11 12 11 9 7 9 9 6 5 5 5 5 6 9 10 9 4 3 3 11 6 3 7 11 11 8 8
26 25 23 17 9 7 9 9 9 11 10 10 14 14 15 15 13 13 12 10 6 6 9 10 9 7 6 5 3 4 3 3 3 2 5 4 10 15 8 6 7 2 4 7 9
24 23 21 19 13 9 9 11 10 12 16 18 17 15 14 13 10 8 8 7 7 5 9 5 4 5 4 3 3 1 2 1 5 2 5 9 10 3 6 6 5 3 6 11 11
23 20 19 18 14 11 9 10 11 19 22 20 17 11 9 7 7 5 5 5 4 4 2 3 3 5 5 4 4 2 2 2 2 3 4 7 11 16 14 9 7 10 12 13 13
17 17 16 15 17 12 8 15 13 18 17 12 7 9 10 8 6 5 4 3 4 3 2 2 3 6 6 6 8 7 4 3 3 1 4 8 12 14 8 6 5 9 12 14 14
15 11 13 13 12 13 18 17 13 11 9 5 7 9 10 9 8 6 4 5 4 3 1 2 4 3 7 7 6 9 10 7 4 4 3 5 8 5 8 6 6 14 13 14 15
15 9 9 9 8 11 12 13 11 8 8 7 5 5 5 5 5 4 5 5 4 2 1 1 3 5 7 10 10 11 11 12 6 5 8 4 17 6 10 6 11 14 21 23 21
17 8 6 5 5 7 9 10 9 9 6 4 4 5 6 5 3 3 3 3 2 2 2 2 3 3 2 8 15 17 19 20 18 14 14 5 10 5 10 11 22 22 26 27 21
19 8 6 3 3 3 2 3 5 5 5 5 4 5 5 5 4 5 4 4 4 5 6 7 9 10 10 7 10 13 16 16 21 15 15 34 38 27 28 29 29 30 30 23 21
19 11 11 7 5 3 2 3 3 3 4 5 6 5 6 5 5 5 5 6 7 9 9 9 13 16 19 21 23 28 29 27 31 36 29 37 38 29 30 32 23 20 19 22 23
21 14 10 11 10 9 7 4 5 7 7 6 7 8 9 9 7 8 9 10 10 11 12 16 14 19 31 22 24 34 35 39 42 46 50 49 51 25 14 16 20 24 28 31 20
23 16 12 11 11 11 9 8 8 9 10 11 10 13 13 9 14 15 17 17 19 19 18 20 17 14 11 11 20 26 15 21 30 35 37 48 18 24 20 17 19 21 25 25 21
Wind_Direction
21 16 21 347 240 236 227 218 208 202 208 201 197 185 166 182 181 181 177 175 179 181 177 178 181 183 186 184 185 187 193 186 179 181 188 195 208 216 236 244 240 238 240 245 246
23 29 30 37 16 188 206 197 201 209 201 200 203 193 195 179 180 178 174 176 174 181 179 177 179 180 183 186 187 189 198 192 188 184 198 204 204 218 237 247 246 245 249 256 259
34 35 42 46 46 83 131 162 166 176 185 200 198 192 169 172 175 175 178 173 171 177 180 178 178 179 183 187 190 193 198 188 181 187 195 203 211 222 234 243 248 250 252 256 256
36 42 46 46 50 54 108 129 167 172 184 196 197 179 165 160 165 170 171 174 177 174 179 177 176 178 181 187 190 193 195 188 183 195 195 203 215 227 232 242 247 252 257 264 265
40 40 47 56 52 59 73 90 117 127 151 189 182 181 157 153 160 165 167 170 175 176 176 177 177 176 182 189 190 196 197 196 197 203 211 220 227 235 234 246 253 256 257 257 262
45 42 39 48 50 60 69 92 110 131 163 170 169 142 150 150 155 159 161 166 171 173 174 177 178 176 183 185 190 199 200 204 210 216 224 230 238 240 246 248 257 262 261 259 258
36 40 41 39 49 50 69 85 110 117 126 157 130 141 147 132 145 151 155 161 161 164 172 171 177 181 180 184 192 198 203 208 218 225 236 244 247 254 254 255 258 259 260 262 264
33 36 36 36 42 56 53 81 115 116 139 116 149 141 122 133 137 144 148 154 155 156 163 167 172 181 181 183 187 190 198 199 215 230 240 243 246 252 254 250 247 254 259 263 267
36 39 33 27 43 61 75 67 105 146 140 141 131 129 113 132 136 145 151 155 157 155 159 166 166 165 168 175 181 190 195 216 225 236 246 248 255 257 264 265 264 265 269 275 277
48 49 45 46 63 62 69 86 94 121 130 136 156 144 145 138 146 150 155 156 156 155 161 167 169 165 169 177 190 209 215 219 230 244 253 261 261 263 272 275 275 279 282 283 286
62 64 60 58 65 75 77 92 95 101 136 128 140 160 151 151 148 150 155 156 158 161 167 171 171 172 178 192 216 223 221 232 246 264 274 277 275 275 268 271 280 280 281 282 280
53 62 71 68 61 69 75 75 84 103 99 112 121 136 135 140 139 142 150 154 159 164 169 170 178 180 187 192 199 209 223 241 263 277 287 288 288 289 284 283 279 276 274 273 277
47 50 61 64 78 70 76 73 78 92 97 98 107 132 133 133 135 143 151 154 157 171 171 181 178 182 187 195 204 221 241 258 276 285 290 297 297 295 287 281 280 279 277 275 280
50 43 48 56 67 78 80 75 69 77 80 84 86 99 112 118 121 134 152 157 153 164 158 171 174 177 182 193 208 234 259 280 294 303 294 302 287 294 287 281 280 284 280 286 290
47 49 41 40 51 64 83 72 62 69 69 67 71 101 119 131 133 138 147 151 154 153 165 164 172 179 188 206 225 247 270 286 292 294 300 289 278 278 276 281 268 287 296 300 312
35 48 48 42 44 84 94 85 81 79 52 79 93 102 119 120 126 130 143 138 132 147 145 153 161 169 187 204 223 243 268 289 284 287 286 248 266 277 260 249 301 310 310 339 354
33 39 47 44 50 59 98 93 79 73 119 106 107 113 113 113 115 122 138 148 146 129 140 143 162 172 185 197 222 252 283 295 331 334 227 285 277 261 228 281 307 3 29 4 356
32 33 46 48 51 63 84 90 79 127 124 127 119 116 114 114 110 124 129 135 139 153 153 165 166 179 192 195 211 291 252 204 220 268 285 277 242 263 196 284 276 206 347 341 344
29 34 37 57 61 75 87 92 107 121 130 132 129 132 121 125 135 126 119 135 144 154 158 163 167 190 189 211 218 215 236 239 293 254 292 251 277 280 262 238 247 251 299 320 329
20 29 41 47 60 67 108 104 125 137 140 148 143 150 143 142 146 148 137 120 130 136 131 161 187 215 220 228 233 233 236 202 232 276 284 282 276 245 217 243 271 296 313 315 320
11 18 36 50 62 74 86 97 114 130 137 149 153 153 152 139 147 140 133 119 119 139 176 259 214 217 223 231 232 228 231 225 232 222 230 298 278 274 229 244 314 328 320 319 321
356 4 25 47 62 82 89 107 108 103 106 111 111 133 141 135 138 127 149 156 145 163 225 203 243 242 243 241 237 236 235 231 221 215 229 263 276 270 231 248 320 325 320 313 313
347 358 0 25 64 74 95 105 113 124 123 138 147 152 151 152 149 154 160 162 180 243 253 272 226 279 263 242 245 245 247 243 240 249 236 204 259 249 239 287 305 306 317 314 311
341 341 343 329 30 56 86 123 137 140 144 156 175 180 180 188 203 201 201 215 230 252 256 259 249 237 238 263 266 253 261 251 233 221 234 244 275 275 275 287 291 300 298 297 309
339 328 320 308 299 290 289 268 232 217 226 222 217 226 224 234 232 228 239 250 264 270 265 260 274 278 278 275 269 268 264 254 240 243 242 272 275 291 295 306 298 291 289 290 301
334 322 306 303 297 283 268 257 252 257 252 254 248 245 242 250 268 287 274 273 280 275 259 268 279 294 296 293 268 268 263 254 248 252 256 269 279 309 303 291 293 292 292 291 294
334 318 304 294 293 291 285 264 252 256 263 261 257 262 263 265 266 275 275 274 270 274 272 272 275 295 290 299 300 289 285 255 260 262 266 259 296 304 304 297 281 282 286 291 290